Time,TemperatureF,DewpointF,PressureIn,WindDirection,WindDirectionDegrees,WindSpeedMPH,WindSpeedGustMPH,Humidity,HourlyPrecipIn,Conditions,Clouds,dailyrainin,SoftwareType,DateUTC
2013-02-20 00:00:00,38.9,20.4,30.15,West,266,1.0,2.0,47,0.00,,SKC,0.37,VWS V14.01,2013-02-20 05:00:00,
2013-02-20 00:05:00,39.1,20.1,30.16,NNW,336,1.0,5.0,46,0.00,,SKC,0.00,VWS V14.01,2013-02-20 05:05:00,
2013-02-20 00:10:00,39.2,19.7,30.16,NNE,12,0.0,6.0,45,0.00,,SKC,0.00,VWS V14.01,2013-02-20 05:10:00,
2013-02-20 00:15:00,39.1,19.6,30.16,NNW,345,1.0,3.0,45,0.00,,SKC,0.00,VWS V14.01,2013-02-20 05:15:00,
2013-02-20 00:20:00,39.0,20.0,30.16,NNW,336,0.0,3.0,46,0.00,,SKC,0.00,VWS V14.01,2013-02-20 05:20:00,
2013-02-20 00:25:00,38.7,19.7,30.17,West,264,1.0,1.0,46,0.00,,SKC,0.00,VWS V14.01,2013-02-20 05:25:00,
2013-02-20 00:30:00,38.5,19.0,30.17,North,1,4.0,4.0,45,0.00,,SKC,0.00,VWS V14.01,2013-02-20 05:30:00,
2013-02-20 00:35:00,38.5,19.0,30.17,WNW,301,0.0,2.0,45,0.00,,SKC,0.00,VWS V14.01,2013-02-20 05:35:00,
2013-02-20 00:40:00,38.3,19.4,30.17,NNE,13,0.0,3.0,46,0.00,,SKC,0.00,VWS V14.01,2013-02-20 05:40:00,
2013-02-20 00:45:00,38.0,19.1,30.17,North,358,1.0,1.0,46,0.00,,SKC,0.00,VWS V14.01,2013-02-20 05:45:00,
2013-02-20 00:50:00,38.1,18.6,30.17,NNE,12,0.0,3.0,45,0.00,,SKC,0.00,VWS V14.01,2013-02-20 05:50:00,
2013-02-20 00:55:00,38.1,18.6,30.17,NNW,347,2.0,4.0,45,0.00,,SKC,0.00,VWS V14.01,2013-02-20 05:55:00,
2013-02-20 01:00:00,37.9,18.5,30.17,NW,325,0.0,4.0,45,0.00,,SKC,0.00,VWS V14.01,2013-02-20 06:00:00,
2013-02-20 01:05:00,37.8,18.9,30.17,NW,326,3.0,5.0,46,0.00,,SKC,0.00,VWS V14.01,2013-02-20 06:05:00,
2013-02-20 01:10:00,37.7,18.8,30.17,NNW,338,3.0,4.0,46,0.00,,SKC,0.00,VWS V14.01,2013-02-20 06:10:00,
2013-02-20 01:15:00,37.7,18.8,30.17,NW,316,1.0,2.0,46,0.00,,SKC,0.00,VWS V14.01,2013-02-20 06:15:00,
2013-02-20 01:20:00,37.5,18.6,30.17,NW,314,1.0,3.0,46,0.00,,SKC,0.00,VWS V14.01,2013-02-20 06:20:00,
2013-02-20 01:25:00,37.3,18.4,30.17,WSW,243,0.0,3.0,46,0.00,,SKC,0.00,VWS V14.01,2013-02-20 06:25:00,
2013-02-20 01:30:00,37.2,18.8,30.17,NW,321,0.0,1.0,47,0.00,,SKC,0.00,VWS V14.01,2013-02-20 06:30:00,
2013-02-20 01:35:00,37.1,18.8,30.17,North,353,3.0,4.0,47,0.00,,SKC,0.00,VWS V14.01,2013-02-20 06:35:00,
2013-02-20 01:40:00,37.0,18.7,30.18,NNW,335,0.0,3.0,47,0.00,,SKC,0.00,VWS V14.01,2013-02-20 06:40:00,
2013-02-20 01:45:00,36.9,18.6,30.18,NW,321,0.0,4.0,47,0.00,,SKC,0.00,VWS V14.01,2013-02-20 06:45:00,
2013-02-20 01:50:00,36.8,19.0,30.18,NW,326,0.0,4.0,48,0.00,,SKC,0.00,VWS V14.01,2013-02-20 06:50:00,
2013-02-20 01:55:00,36.7,19.4,30.18,North,1,1.0,3.0,49,0.00,,SKC,0.00,VWS V14.01,2013-02-20 06:55:00,
2013-02-20 02:00:00,36.5,19.6,30.17,NNW,342,1.0,2.0,50,0.00,,SKC,0.00,VWS V14.01,2013-02-20 07:00:00,
2013-02-20 02:05:00,36.3,19.5,30.17,NW,323,1.0,4.0,50,0.00,,SKC,0.00,VWS V14.01,2013-02-20 07:05:00,
2013-02-20 02:10:00,36.3,19.0,30.17,NNW,330,1.0,4.0,49,0.00,,SKC,0.00,VWS V14.01,2013-02-20 07:10:00,
2013-02-20 02:15:00,36.4,19.1,30.17,North,355,2.0,8.0,49,0.00,,SKC,0.00,VWS V14.01,2013-02-20 07:15:00,
2013-02-20 02:20:00,36.4,19.5,30.17,NNE,13,0.0,6.0,50,0.00,,SKC,0.00,VWS V14.01,2013-02-20 07:20:00,
2013-02-20 02:25:00,36.2,18.9,30.17,NNE,12,3.0,8.0,49,0.00,,SKC,0.00,VWS V14.01,2013-02-20 07:25:00,
2013-02-20 02:30:00,36.2,19.4,30.17,North,4,2.0,4.0,50,0.00,,SKC,0.00,VWS V14.01,2013-02-20 07:30:00,
2013-02-20 02:35:00,36.1,19.3,30.17,NW,326,2.0,10.0,50,0.00,,SKC,0.00,VWS V14.01,2013-02-20 07:35:00,
2013-02-20 02:40:00,36.0,19.2,30.17,WNW,295,1.0,6.0,50,0.00,,SKC,0.00,VWS V14.01,2013-02-20 07:40:00,
2013-02-20 02:45:00,35.8,19.0,30.17,NW,316,0.0,3.0,50,0.00,,SKC,0.00,VWS V14.01,2013-02-20 07:45:00,
2013-02-20 02:50:00,35.8,19.0,30.17,WSW,248,0.0,7.0,50,0.00,,SKC,0.00,VWS V14.01,2013-02-20 07:50:00,
2013-02-20 02:55:00,35.7,18.9,30.17,NNW,330,3.0,5.0,50,0.00,,SKC,0.00,VWS V14.01,2013-02-20 07:55:00,
2013-02-20 03:00:00,35.7,18.4,30.17,NNW,332,1.0,8.0,49,0.00,,SKC,0.00,VWS V14.01,2013-02-20 08:00:00,
2013-02-20 03:05:00,35.7,18.4,30.17,North,360,2.0,6.0,49,0.00,,SKC,0.00,VWS V14.01,2013-02-20 08:05:00,
2013-02-20 03:10:00,35.7,18.4,30.17,WNW,300,1.0,10.0,49,0.00,,SKC,0.00,VWS V14.01,2013-02-20 08:10:00,
2013-02-20 03:15:00,35.6,18.3,30.17,NW,323,1.0,5.0,49,0.00,,SKC,0.00,VWS V14.01,2013-02-20 08:15:00,
2013-02-20 03:20:00,35.5,18.2,30.17,NNE,13,3.0,8.0,49,0.00,,SKC,0.00,VWS V14.01,2013-02-20 08:20:00,
2013-02-20 03:25:00,35.5,18.2,30.17,West,271,2.0,9.0,49,0.00,,SKC,0.00,VWS V14.01,2013-02-20 08:25:00,
2013-02-20 03:30:00,35.4,18.1,30.17,WNW,290,1.0,5.0,49,0.00,,SKC,0.00,VWS V14.01,2013-02-20 08:30:00,
2013-02-20 03:35:00,35.2,18.0,30.17,NNE,18,3.0,9.0,49,0.00,,SKC,0.00,VWS V14.01,2013-02-20 08:35:00,
2013-02-20 03:40:00,35.1,18.4,30.16,NNW,329,2.0,6.0,50,0.00,,SKC,0.00,VWS V14.01,2013-02-20 08:40:00,
2013-02-20 03:45:00,34.9,18.2,30.16,NNW,341,0.0,3.0,50,0.00,,SKC,0.00,VWS V14.01,2013-02-20 08:45:00,
2013-02-20 03:50:00,34.8,18.1,30.16,NE,48,1.0,7.0,50,0.00,,SKC,0.00,VWS V14.01,2013-02-20 08:50:00,
2013-02-20 03:55:00,34.7,18.0,30.16,NNE,27,3.0,6.0,50,0.00,,SKC,0.00,VWS V14.01,2013-02-20 08:55:00,
2013-02-20 04:00:00,34.6,17.9,30.15,NE,37,2.0,4.0,50,0.00,,SKC,0.00,VWS V14.01,2013-02-20 09:00:00,
2013-02-20 04:05:00,34.6,17.4,30.15,North,352,2.0,12.0,49,0.00,,SKC,0.00,VWS V14.01,2013-02-20 09:05:00,
2013-02-20 04:10:00,34.5,17.8,30.15,North,352,0.0,5.0,50,0.00,,SKC,0.00,VWS V14.01,2013-02-20 09:10:00,
2013-02-20 04:15:00,34.2,18.0,30.14,NNE,18,3.0,3.0,51,0.00,,SKC,0.00,VWS V14.01,2013-02-20 09:15:00,
2013-02-20 04:20:00,34.1,17.9,30.15,NW,322,0.0,8.0,51,0.00,,SKC,0.00,VWS V14.01,2013-02-20 09:20:00,
2013-02-20 04:25:00,34.1,17.9,30.15,NW,315,1.0,7.0,51,0.00,,SKC,0.00,VWS V14.01,2013-02-20 09:25:00,
2013-02-20 04:30:00,34.0,17.3,30.15,NNE,25,0.0,2.0,50,0.00,,SKC,0.00,VWS V14.01,2013-02-20 09:30:00,
2013-02-20 04:35:00,33.8,17.6,30.15,NNW,347,1.0,2.0,51,0.00,,SKC,0.00,VWS V14.01,2013-02-20 09:35:00,
2013-02-20 04:40:00,33.7,17.5,30.15,NNW,345,3.0,4.0,51,0.00,,SKC,0.00,VWS V14.01,2013-02-20 09:40:00,
2013-02-20 04:45:00,33.7,17.5,30.15,NNE,31,0.0,3.0,51,0.00,,SKC,0.00,VWS V14.01,2013-02-20 09:45:00,
2013-02-20 04:50:00,33.7,17.5,30.15,North,356,1.0,3.0,51,0.00,,SKC,0.00,VWS V14.01,2013-02-20 09:50:00,
2013-02-20 04:55:00,33.5,17.8,30.15,NNW,338,1.0,4.0,52,0.00,,SKC,0.00,VWS V14.01,2013-02-20 09:55:00,
2013-02-20 05:00:00,33.5,17.3,30.15,NE,41,0.0,5.0,51,0.00,,SKC,0.00,VWS V14.01,2013-02-20 10:00:00,
2013-02-20 05:05:00,33.5,17.3,30.15,NNE,18,1.0,4.0,51,0.00,,SKC,0.00,VWS V14.01,2013-02-20 10:05:00,
2013-02-20 05:10:00,33.3,17.1,30.15,NW,316,1.0,2.0,51,0.00,,SKC,0.00,VWS V14.01,2013-02-20 10:10:00,
2013-02-20 05:15:00,33.3,17.6,30.15,NNW,338,0.0,3.0,52,0.00,,SKC,0.00,VWS V14.01,2013-02-20 10:15:00,
2013-02-20 05:20:00,33.2,17.5,30.15,NW,314,0.0,4.0,52,0.00,,SKC,0.00,VWS V14.01,2013-02-20 10:20:00,
2013-02-20 05:25:00,33.2,17.5,30.14,NNW,330,0.0,1.0,52,0.00,,SKC,0.00,VWS V14.01,2013-02-20 10:25:00,
2013-02-20 05:30:00,33.1,17.4,30.15,WNW,293,0.0,1.0,52,0.00,,SKC,0.00,VWS V14.01,2013-02-20 10:30:00,
2013-02-20 05:35:00,33.2,17.5,30.15,WNW,285,1.0,4.0,52,0.00,,SKC,0.00,VWS V14.01,2013-02-20 10:35:00,
2013-02-20 05:40:00,33.2,17.0,30.15,NW,321,0.0,2.0,51,0.00,,SKC,0.00,VWS V14.01,2013-02-20 10:40:00,
2013-02-20 05:45:00,33.4,17.7,30.16,WNW,288,0.0,4.0,52,0.00,,SKC,0.00,VWS V14.01,2013-02-20 10:45:00,
2013-02-20 05:50:00,33.2,17.0,30.16,NW,321,1.0,2.0,51,0.00,,SKC,0.00,VWS V14.01,2013-02-20 10:50:00,
2013-02-20 05:55:00,33.2,17.0,30.16,WNW,299,0.0,3.0,51,0.00,,SKC,0.00,VWS V14.01,2013-02-20 10:55:00,
2013-02-20 06:00:00,33.1,17.4,30.16,NW,326,0.0,1.0,52,0.00,,SKC,0.00,VWS V14.01,2013-02-20 11:00:00,
2013-02-20 06:05:00,32.9,16.8,30.16,North,1,0.0,2.0,51,0.00,,SKC,0.00,VWS V14.01,2013-02-20 11:05:00,
2013-02-20 06:10:00,32.8,17.1,30.16,WNW,298,1.0,2.0,52,0.00,,SKC,0.00,VWS V14.01,2013-02-20 11:10:00,
2013-02-20 06:15:00,32.7,17.0,30.16,NNW,340,0.0,3.0,52,0.00,,SKC,0.00,VWS V14.01,2013-02-20 11:15:00,
2013-02-20 06:20:00,32.8,17.1,30.16,North,4,0.0,2.0,52,0.00,,SKC,0.00,VWS V14.01,2013-02-20 11:20:00,
2013-02-20 06:25:00,32.8,17.1,30.16,WNW,284,0.0,2.0,52,0.00,,SKC,0.00,VWS V14.01,2013-02-20 11:25:00,
2013-02-20 06:30:00,32.8,17.1,30.17,NNW,332,0.0,2.0,52,0.00,,SKC,0.00,VWS V14.01,2013-02-20 11:30:00,
2013-02-20 06:35:00,32.9,17.2,30.17,West,265,0.0,4.0,52,0.00,,SKC,0.00,VWS V14.01,2013-02-20 11:35:00,
2013-02-20 06:40:00,32.7,17.0,30.17,West,276,0.0,1.0,52,0.00,,SKC,0.00,VWS V14.01,2013-02-20 11:40:00,
2013-02-20 06:45:00,32.5,17.3,30.17,NW,304,0.0,1.0,53,0.00,,SKC,0.00,VWS V14.01,2013-02-20 11:45:00,
2013-02-20 06:50:00,32.5,17.3,30.17,WNW,300,0.0,4.0,53,0.00,,SKC,0.00,VWS V14.01,2013-02-20 11:50:00,
2013-02-20 06:55:00,32.4,17.2,30.17,WNW,298,0.0,2.0,53,0.00,,SKC,0.00,VWS V14.01,2013-02-20 11:55:00,
2013-02-20 07:00:00,32.5,17.3,30.17,NW,307,2.0,3.0,53,0.00,,SKC,0.00,VWS V14.01,2013-02-20 12:00:00,
2013-02-20 07:05:00,32.5,17.3,30.18,North,355,1.0,1.0,53,0.00,,SKC,0.00,VWS V14.01,2013-02-20 12:05:00,
2013-02-20 07:10:00,32.4,17.6,30.18,NW,310,0.0,2.0,54,0.00,,SKC,0.00,VWS V14.01,2013-02-20 12:10:00,
2013-02-20 07:15:00,32.3,17.1,30.18,WNW,301,0.0,2.0,53,0.00,,SKC,0.00,VWS V14.01,2013-02-20 12:15:00,
2013-02-20 07:20:00,32.3,17.5,30.18,NNW,330,0.0,3.0,54,0.00,,SKC,0.00,VWS V14.01,2013-02-20 12:20:00,
2013-02-20 07:25:00,32.1,17.8,30.18,North,355,1.0,1.0,55,0.00,,SKC,0.00,VWS V14.01,2013-02-20 12:25:00,
2013-02-20 07:30:00,32.0,17.7,30.18,NNW,340,0.0,3.0,55,0.00,,SKC,0.00,VWS V14.01,2013-02-20 12:30:00,
2013-02-20 07:35:00,32.0,17.2,30.18,NW,321,0.0,3.0,54,0.00,,SKC,0.00,VWS V14.01,2013-02-20 12:35:00,
2013-02-20 07:40:00,32.0,17.7,30.18,NW,314,4.0,4.0,55,0.00,,SKC,0.00,VWS V14.01,2013-02-20 12:40:00,
2013-02-20 07:45:00,32.3,18.0,30.19,NNW,340,0.0,4.0,55,0.00,,SKC,0.00,VWS V14.01,2013-02-20 12:45:00,
2013-02-20 07:50:00,32.5,18.6,30.19,NW,311,0.0,2.0,56,0.00,,SKC,0.00,VWS V14.01,2013-02-20 12:50:00,
2013-02-20 07:55:00,32.7,18.3,30.19,NW,304,0.0,1.0,55,0.00,,SKC,0.00,VWS V14.01,2013-02-20 12:55:00,
2013-02-20 08:00:00,32.8,18.4,30.19,NW,304,0.0,0.0,55,0.00,,SKC,0.00,VWS V14.01,2013-02-20 13:00:00,
2013-02-20 08:05:00,33.0,18.2,30.20,ENE,72,0.0,1.0,54,0.00,,SKC,0.00,VWS V14.01,2013-02-20 13:05:00,
2013-02-20 08:10:00,33.3,18.5,30.21,North,8,0.0,2.0,54,0.00,,SKC,0.00,VWS V14.01,2013-02-20 13:10:00,
2013-02-20 08:15:00,33.8,18.0,30.21,West,266,0.0,2.0,52,0.00,,SKC,0.00,VWS V14.01,2013-02-20 13:15:00,
2013-02-20 08:20:00,34.1,17.9,30.21,NNW,327,0.0,1.0,51,0.00,,SKC,0.00,VWS V14.01,2013-02-20 13:20:00,
2013-02-20 08:25:00,34.5,17.8,30.21,WSW,242,1.0,2.0,50,0.00,,SKC,0.00,VWS V14.01,2013-02-20 13:25:00,
2013-02-20 08:30:00,35.0,19.2,30.22,SW,226,0.0,1.0,52,0.00,,SKC,0.00,VWS V14.01,2013-02-20 13:30:00,
2013-02-20 08:35:00,35.3,19.0,30.21,WSW,258,0.0,1.0,51,0.00,,SKC,0.00,VWS V14.01,2013-02-20 13:35:00,
2013-02-20 08:40:00,35.7,18.4,30.21,West,281,1.0,2.0,49,0.00,,SKC,0.00,VWS V14.01,2013-02-20 13:40:00,
2013-02-20 08:45:00,36.0,16.2,30.21,North,353,2.0,6.0,44,0.00,,SKC,0.00,VWS V14.01,2013-02-20 13:45:00,
2013-02-20 08:50:00,36.5,16.1,30.21,NNW,333,2.0,2.0,43,0.00,,SKC,0.00,VWS V14.01,2013-02-20 13:50:00,
2013-02-20 08:55:00,36.7,15.8,30.21,NNW,327,0.0,4.0,42,0.00,,SKC,0.00,VWS V14.01,2013-02-20 13:55:00,
2013-02-20 09:01:00,37.0,16.6,30.21,WNW,293,1.0,6.0,43,0.00,,SKC,0.00,VWS V14.01,2013-02-20 14:01:00,
2013-02-20 09:05:00,37.2,15.7,30.21,NNE,13,4.0,4.0,41,0.00,,FEW150,0.00,VWS V14.01,2013-02-20 14:05:00,
2013-02-20 09:11:00,37.4,15.9,30.22,NNW,332,1.0,5.0,41,0.00,,FEW150,0.00,VWS V14.01,2013-02-20 14:11:00,
2013-02-20 09:15:00,37.9,16.9,30.22,West,280,0.0,4.0,42,0.00,,FEW150,0.00,VWS V14.01,2013-02-20 14:15:00,
2013-02-20 09:21:00,38.1,16.5,30.22,WNW,293,1.0,5.0,41,0.00,,FEW150,0.00,VWS V14.01,2013-02-20 14:21:00,
2013-02-20 09:26:00,38.3,15.5,30.22,NW,323,1.0,6.0,39,0.00,,FEW150,0.00,VWS V14.01,2013-02-20 14:26:00,
2013-02-20 09:31:00,38.7,15.9,30.22,NW,311,2.0,5.0,39,0.00,,FEW150,0.00,VWS V14.01,2013-02-20 14:31:00,
2013-02-20 09:36:00,39.2,16.9,30.21,NNE,30,4.0,5.0,40,0.00,,FEW150,0.00,VWS V14.01,2013-02-20 14:36:00,
2013-02-20 09:41:00,39.7,14.9,30.21,WSW,246,7.0,7.0,36,0.00,,FEW150,0.00,VWS V14.01,2013-02-20 14:41:00,
2013-02-20 09:46:00,39.9,15.8,30.21,NNE,16,3.0,6.0,37,0.00,,FEW150,0.00,VWS V14.01,2013-02-20 14:46:00,
2013-02-20 09:51:00,40.3,14.8,30.21,NNE,30,0.0,3.0,35,0.00,,FEW150,0.00,VWS V14.01,2013-02-20 14:51:00,
2013-02-20 09:56:00,40.7,13.9,30.21,NNW,334,3.0,7.0,33,0.00,,FEW150,0.00,VWS V14.01,2013-02-20 14:56:00,
2013-02-20 10:01:00,41.0,13.4,30.21,NNW,330,3.0,6.0,32,0.00,,FEW150,0.00,VWS V14.01,2013-02-20 15:01:00,
2013-02-20 10:06:00,41.3,14.4,30.22,WSW,237,2.0,7.0,33,0.00,,SCT150,0.00,VWS V14.01,2013-02-20 15:06:00,
2013-02-20 10:11:00,41.8,14.1,30.21,NNE,25,2.0,4.0,32,0.00,,SCT150,0.00,VWS V14.01,2013-02-20 15:11:00,
2013-02-20 10:16:00,42.3,14.6,30.22,West,266,0.0,3.0,32,0.00,,SCT150,0.00,VWS V14.01,2013-02-20 15:16:00,
2013-02-20 10:21:00,42.4,13.2,30.22,NW,322,2.0,5.0,30,0.00,,SCT150,0.00,VWS V14.01,2013-02-20 15:21:00,
2013-02-20 10:26:00,42.0,14.3,30.21,NNE,22,4.0,4.0,32,0.00,,SCT150,0.00,VWS V14.01,2013-02-20 15:26:00,
2013-02-20 10:31:00,42.3,13.8,30.21,North,355,4.0,4.0,31,0.00,,SCT150,0.00,VWS V14.01,2013-02-20 15:31:00,
2013-02-20 10:36:00,42.7,14.9,30.20,WSW,257,2.0,5.0,32,0.00,,SCT150,0.00,VWS V14.01,2013-02-20 15:36:00,
2013-02-20 10:41:00,43.2,11.5,30.20,West,271,4.0,6.0,27,0.00,,SCT150,0.00,VWS V14.01,2013-02-20 15:41:00,
2013-02-20 10:46:00,43.7,13.5,30.20,WNW,300,0.0,6.0,29,0.00,,SCT150,0.00,VWS V14.01,2013-02-20 15:46:00,
2013-02-20 10:51:00,44.3,13.3,30.20,SSW,212,4.0,4.0,28,0.00,,SCT150,0.00,VWS V14.01,2013-02-20 15:51:00,
2013-02-20 10:56:00,44.4,12.5,30.20,North,6,5.0,6.0,27,0.00,,SCT150,0.00,VWS V14.01,2013-02-20 15:56:00,
2013-02-20 11:01:00,44.7,11.9,30.19,NNE,13,4.0,4.0,26,0.00,,SCT150,0.00,VWS V14.01,2013-02-20 16:01:00,
2013-02-20 11:06:00,44.8,11.1,30.19,West,267,0.0,6.0,25,0.00,,SCT150,0.00,VWS V14.01,2013-02-20 16:06:00,
2013-02-20 11:11:00,45.1,11.4,30.19,NW,304,2.0,7.0,25,0.00,,SCT150,0.00,VWS V14.01,2013-02-20 16:11:00,
2013-02-20 11:16:00,45.2,12.4,30.19,North,359,2.0,5.0,26,0.00,,SCT150,0.00,VWS V14.01,2013-02-20 16:16:00,
2013-02-20 11:21:00,45.3,12.4,30.19,North,1,3.0,5.0,26,0.00,,SCT150,0.00,VWS V14.01,2013-02-20 16:21:00,
2013-02-20 11:26:00,45.4,11.6,30.18,WSW,247,3.0,8.0,25,0.00,,SCT150,0.00,VWS V14.01,2013-02-20 16:26:00,
2013-02-20 11:31:00,46.0,11.2,30.18,SW,228,0.0,5.0,24,0.00,,SCT150,0.00,VWS V14.01,2013-02-20 16:31:00,
2013-02-20 11:36:00,46.0,11.2,30.18,NNW,330,2.0,7.0,24,0.00,,SCT150,0.00,VWS V14.01,2013-02-20 16:36:00,
2013-02-20 11:41:00,46.3,12.4,30.19,WNW,283,0.0,5.0,25,0.00,,SCT150,0.00,VWS V14.01,2013-02-20 16:41:00,
2013-02-20 11:46:00,46.8,12.9,30.19,NW,321,2.0,5.0,25,0.00,,SCT150,0.00,VWS V14.01,2013-02-20 16:46:00,
2013-02-20 11:51:00,47.2,14.1,30.19,SW,220,1.0,7.0,26,0.00,,SCT150,0.00,VWS V14.01,2013-02-20 16:51:00,
2013-02-20 11:56:00,47.9,12.9,30.19,West,280,3.0,6.0,24,0.00,,SCT150,0.00,VWS V14.01,2013-02-20 16:56:00,
2013-02-20 12:01:00,47.8,15.5,30.19,WSW,256,3.0,4.0,27,0.00,,SCT150,0.00,VWS V14.01,2013-02-20 17:01:00,
2013-02-20 12:06:00,47.7,15.4,30.19,West,273,1.0,5.0,27,0.00,,SCT150,0.00,VWS V14.01,2013-02-20 17:06:00,
2013-02-20 12:11:00,48.7,15.4,30.19,SSW,198,2.0,7.0,26,0.00,,SCT150,0.00,VWS V14.01,2013-02-20 17:11:00,
2013-02-20 12:16:00,48.7,14.5,30.19,WSW,257,3.0,9.0,25,0.00,,SCT150,0.00,VWS V14.01,2013-02-20 17:16:00,
2013-02-20 12:21:00,48.5,11.4,30.18,North,356,3.0,8.0,22,0.00,,SCT150,0.00,VWS V14.01,2013-02-20 17:21:00,
2013-02-20 12:26:00,48.7,13.5,30.18,WNW,297,1.0,5.0,24,0.00,,SCT150,0.00,VWS V14.01,2013-02-20 17:26:00,
2013-02-20 12:31:00,49.2,15.8,30.18,NW,315,0.0,3.0,26,0.00,,SCT150,0.00,VWS V14.01,2013-02-20 17:31:00,
2013-02-20 12:36:00,49.7,12.4,30.18,SE,133,1.0,8.0,22,0.00,,SCT150,0.00,VWS V14.01,2013-02-20 17:36:00,
2013-02-20 12:41:00,49.6,11.3,30.18,SW,231,1.0,6.0,21,0.00,,SCT150,0.00,VWS V14.01,2013-02-20 17:41:00,
2013-02-20 12:46:00,49.3,12.1,30.18,WSW,246,2.0,7.0,22,0.00,,SCT150,0.00,VWS V14.01,2013-02-20 17:46:00,
2013-02-20 12:51:00,48.8,11.7,30.18,SW,215,2.0,5.0,22,0.00,,SCT150,0.00,VWS V14.01,2013-02-20 17:51:00,
2013-02-20 12:56:00,48.9,11.7,30.18,West,265,3.0,5.0,22,0.00,,SCT150,0.00,VWS V14.01,2013-02-20 17:56:00,
2013-02-20 13:01:00,48.9,11.7,30.17,North,11,4.0,8.0,22,0.00,,SCT150,0.00,VWS V14.01,2013-02-20 18:01:00,
2013-02-20 13:06:00,49.1,12.9,30.17,North,354,5.0,5.0,23,0.00,,BKN150,0.00,VWS V14.01,2013-02-20 18:06:00,
2013-02-20 13:11:00,49.0,11.8,30.17,SW,232,1.0,7.0,22,0.00,,BKN150,0.00,VWS V14.01,2013-02-20 18:11:00,
2013-02-20 13:16:00,49.3,13.1,30.17,WSW,240,3.0,6.0,23,0.00,,BKN150,0.00,VWS V14.01,2013-02-20 18:16:00,
2013-02-20 13:21:00,50.0,13.7,30.17,NNE,18,2.0,6.0,23,0.00,,BKN150,0.00,VWS V14.01,2013-02-20 18:21:00,
2013-02-20 13:26:00,50.1,12.8,30.16,SW,220,3.0,3.0,22,0.00,,BKN150,0.00,VWS V14.01,2013-02-20 18:26:00,
2013-02-20 13:31:00,50.1,16.6,30.16,NW,323,1.0,6.0,26,0.00,,BKN150,0.00,VWS V14.01,2013-02-20 18:31:00,
2013-02-20 13:36:00,50.3,14.9,30.16,NNW,338,1.0,5.0,24,0.00,,BKN150,0.00,VWS V14.01,2013-02-20 18:36:00,
2013-02-20 13:41:00,50.1,13.8,30.16,WSW,250,2.0,4.0,23,0.00,,BKN150,0.00,VWS V14.01,2013-02-20 18:41:00,
2013-02-20 13:46:00,50.3,14.9,30.16,NNE,12,0.0,4.0,24,0.00,,BKN150,0.00,VWS V14.01,2013-02-20 18:46:00,
2013-02-20 13:51:00,51.0,14.5,30.16,West,264,5.0,6.0,23,0.00,,BKN150,0.00,VWS V14.01,2013-02-20 18:51:00,
2013-02-20 13:56:00,51.2,13.7,30.16,NW,321,3.0,6.0,22,0.00,,BKN150,0.00,VWS V14.01,2013-02-20 18:56:00,
2013-02-20 14:01:00,51.2,14.7,30.15,North,349,3.0,9.0,23,0.00,,BKN150,0.00,VWS V14.01,2013-02-20 19:01:00,
2013-02-20 14:06:00,50.8,14.4,30.16,WNW,285,2.0,7.0,23,0.00,,BKN150,0.00,VWS V14.01,2013-02-20 19:06:00,
2013-02-20 14:11:00,51.1,14.6,30.15,NW,324,2.0,7.0,23,0.00,,BKN150,0.00,VWS V14.01,2013-02-20 19:11:00,
2013-02-20 14:16:00,50.3,14.9,30.15,NW,309,0.0,3.0,24,0.00,,BKN150,0.00,VWS V14.01,2013-02-20 19:16:00,
2013-02-20 14:21:00,50.6,15.2,30.15,North,353,2.0,4.0,24,0.00,,BKN150,0.00,VWS V14.01,2013-02-20 19:21:00,
2013-02-20 14:26:00,50.3,14.9,30.15,WNW,282,4.0,4.0,24,0.00,,BKN150,0.00,VWS V14.01,2013-02-20 19:26:00,
2013-02-20 14:31:00,49.9,14.6,30.14,NNW,343,3.0,5.0,24,0.00,,BKN150,0.00,VWS V14.01,2013-02-20 19:31:00,
2013-02-20 14:36:00,50.3,15.8,30.15,West,269,1.0,5.0,25,0.00,,BKN150,0.00,VWS V14.01,2013-02-20 19:36:00,
2013-02-20 14:41:00,50.2,13.9,30.15,WNW,291,1.0,6.0,23,0.00,,BKN150,0.00,VWS V14.01,2013-02-20 19:41:00,
2013-02-20 14:46:00,49.9,14.6,30.15,NE,52,2.0,3.0,24,0.00,,BKN150,0.00,VWS V14.01,2013-02-20 19:46:00,
2013-02-20 14:51:00,49.6,14.3,30.15,NNW,330,2.0,5.0,24,0.00,,BKN150,0.00,VWS V14.01,2013-02-20 19:51:00,
2013-02-20 14:56:00,49.7,13.4,30.16,NW,324,2.0,3.0,23,0.00,,BKN150,0.00,VWS V14.01,2013-02-20 19:56:00,
2013-02-20 15:01:00,49.5,14.2,30.16,West,263,1.0,7.0,24,0.00,,BKN150,0.00,VWS V14.01,2013-02-20 20:01:00,
2013-02-20 15:06:00,49.4,12.2,30.16,NNW,333,3.0,6.0,22,0.00,,BKN150,0.00,VWS V14.01,2013-02-20 20:06:00,
2013-02-20 15:11:00,49.2,14.0,30.16,WNW,300,0.0,5.0,24,0.00,,BKN150,0.00,VWS V14.01,2013-02-20 20:11:00,
2013-02-20 15:16:00,49.4,13.2,30.16,NNE,23,3.0,3.0,23,0.00,,BKN150,0.00,VWS V14.01,2013-02-20 20:16:00,
2013-02-20 15:21:00,49.1,11.9,30.17,North,5,3.0,6.0,22,0.00,,BKN150,0.00,VWS V14.01,2013-02-20 20:21:00,
2013-02-20 15:26:00,48.7,11.6,30.17,WNW,289,0.0,8.0,22,0.00,,BKN150,0.00,VWS V14.01,2013-02-20 20:26:00,
2013-02-20 15:31:00,48.4,11.3,30.17,NW,316,3.0,5.0,22,0.00,,BKN150,0.00,VWS V14.01,2013-02-20 20:31:00,
2013-02-20 15:36:00,48.2,11.1,30.17,NNW,332,5.0,6.0,22,0.00,,BKN150,0.00,VWS V14.01,2013-02-20 20:36:00,
2013-02-20 15:41:00,48.1,11.1,30.17,West,278,3.0,6.0,22,0.00,,BKN150,0.00,VWS V14.01,2013-02-20 20:41:00,
2013-02-20 15:46:00,47.9,10.9,30.17,WNW,293,2.0,7.0,22,0.00,,BKN150,0.00,VWS V14.01,2013-02-20 20:46:00,
2013-02-20 15:51:00,47.6,10.6,30.17,West,269,2.0,4.0,22,0.00,,BKN150,0.00,VWS V14.01,2013-02-20 20:51:00,
2013-02-20 15:56:00,47.4,9.4,30.17,NNW,336,1.0,4.0,21,0.00,,BKN150,0.00,VWS V14.01,2013-02-20 20:56:00,
2013-02-20 16:01:00,47.4,10.5,30.18,ESE,121,1.0,4.0,22,0.00,,BKN150,0.00,VWS V14.01,2013-02-20 21:01:00,
2013-02-20 16:06:00,47.2,11.3,30.18,NNW,341,1.0,8.0,23,0.00,,BKN150,0.00,VWS V14.01,2013-02-20 21:06:00,
2013-02-20 16:11:00,46.9,10.1,30.18,NNW,328,5.0,6.0,22,0.00,,BKN150,0.00,VWS V14.01,2013-02-20 21:11:00,
2013-02-20 16:16:00,46.4,8.6,30.18,SSW,204,1.0,12.0,21,0.00,,BKN150,0.00,VWS V14.01,2013-02-20 21:16:00,
2013-02-20 16:21:00,46.1,8.4,30.18,NW,309,4.0,5.0,21,0.00,,BKN150,0.00,VWS V14.01,2013-02-20 21:21:00,
2013-02-20 16:26:00,46.0,9.3,30.19,WNW,285,0.0,6.0,22,0.00,,BKN150,0.00,VWS V14.01,2013-02-20 21:26:00,
2013-02-20 16:31:00,45.9,9.2,30.19,NNE,12,0.0,5.0,22,0.00,,BKN150,0.00,VWS V14.01,2013-02-20 21:31:00,
2013-02-20 16:36:00,45.8,10.1,30.20,West,271,2.0,7.0,23,0.00,,BKN035,0.00,VWS V14.01,2013-02-20 21:36:00,
2013-02-20 16:41:00,45.6,9.0,30.20,WNW,293,0.0,5.0,22,0.00,,BKN035,0.00,VWS V14.01,2013-02-20 21:41:00,
2013-02-20 16:46:00,45.4,10.7,30.20,SW,224,1.0,4.0,24,0.00,,BKN035,0.00,VWS V14.01,2013-02-20 21:46:00,
2013-02-20 16:51:00,45.2,11.5,30.20,NW,310,1.0,7.0,25,0.00,,BKN035,0.00,VWS V14.01,2013-02-20 21:51:00,
2013-02-20 16:56:00,45.0,10.4,30.21,NNE,22,4.0,4.0,24,0.00,,BKN035,0.00,VWS V14.01,2013-02-20 21:56:00,
2013-02-20 17:01:00,44.7,9.2,30.21,NW,310,3.0,8.0,23,0.00,,BKN035,0.00,VWS V14.01,2013-02-20 22:01:00,
2013-02-20 17:06:00,44.5,9.0,30.21,East,95,2.0,5.0,23,0.00,,BKN035,0.00,VWS V14.01,2013-02-20 22:06:00,
2013-02-20 17:11:00,44.3,7.9,30.21,SSW,208,1.0,7.0,22,0.00,,BKN035,0.00,VWS V14.01,2013-02-20 22:11:00,
2013-02-20 17:16:00,44.2,8.8,30.21,West,269,1.0,8.0,23,0.00,,BKN035,0.00,VWS V14.01,2013-02-20 22:16:00,
2013-02-20 17:21:00,44.1,8.7,30.21,NNW,342,1.0,4.0,23,0.00,,BKN035,0.00,VWS V14.01,2013-02-20 22:21:00,
2013-02-20 17:26:00,44.0,9.5,30.20,SW,236,2.0,6.0,24,0.00,,BKN035,0.00,VWS V14.01,2013-02-20 22:26:00,
2013-02-20 17:31:00,43.9,9.5,30.20,NW,321,2.0,4.0,24,0.00,,BKN035,0.00,VWS V14.01,2013-02-20 22:31:00,
2013-02-20 17:36:00,43.8,10.3,30.20,NNW,334,3.0,3.0,25,0.00,,OVC090,0.00,VWS V14.01,2013-02-20 22:36:00,
2013-02-20 17:41:00,43.6,12.7,30.20,NNW,344,2.0,5.0,28,0.00,,OVC090,0.00,VWS V14.01,2013-02-20 22:41:00,
2013-02-20 17:46:00,42.9,15.8,30.19,NNE,30,2.0,5.0,33,0.00,,OVC090,0.00,VWS V14.01,2013-02-20 22:46:00,
2013-02-20 17:51:00,42.3,17.9,30.18,North,349,1.0,2.0,37,0.00,,OVC090,0.00,VWS V14.01,2013-02-20 22:51:00,
2013-02-20 17:56:00,41.8,16.8,30.17,NNE,18,0.0,4.0,36,0.00,,OVC090,0.00,VWS V14.01,2013-02-20 22:56:00,
2013-02-20 18:01:00,41.4,18.3,30.16,West,280,0.0,4.0,39,0.00,,OVC090,0.00,VWS V14.01,2013-02-20 23:01:00,
2013-02-20 18:06:00,41.2,17.5,30.15,North,10,1.0,2.0,38,0.00,,OVC070,0.00,VWS V14.01,2013-02-20 23:06:00,
2013-02-20 18:11:00,41.1,16.8,30.14,NNW,345,0.0,2.0,37,0.00,,OVC070,0.00,VWS V14.01,2013-02-20 23:11:00,
2013-02-20 18:16:00,41.1,18.0,30.15,NW,304,0.0,1.0,39,0.00,,OVC070,0.00,VWS V14.01,2013-02-20 23:16:00,
2013-02-20 18:21:00,41.0,16.7,30.15,NW,321,0.0,2.0,37,0.00,,OVC070,0.00,VWS V14.01,2013-02-20 23:21:00,
2013-02-20 18:26:00,40.9,17.3,30.15,NNW,346,1.0,2.0,38,0.00,,OVC070,0.00,VWS V14.01,2013-02-20 23:26:00,
2013-02-20 18:31:00,40.8,16.6,30.14,North,358,0.0,2.0,37,0.00,,OVC070,0.00,VWS V14.01,2013-02-20 23:31:00,
2013-02-20 18:36:00,40.8,15.9,30.14,NNW,340,0.0,3.0,36,0.00,,OVC070,0.00,VWS V14.01,2013-02-20 23:36:00,
2013-02-20 18:41:00,40.7,15.8,30.13,North,353,0.0,1.0,36,0.00,,OVC070,0.00,VWS V14.01,2013-02-20 23:41:00,
2013-02-20 18:46:00,40.7,16.5,30.13,North,6,0.0,1.0,37,0.00,,OVC070,0.00,VWS V14.01,2013-02-20 23:46:00,
2013-02-20 18:51:00,40.6,14.4,30.14,NNE,20,2.0,2.0,34,0.00,,OVC070,0.00,VWS V14.01,2013-02-20 23:51:00,
2013-02-20 18:56:00,40.4,13.6,30.14,NNW,346,1.0,2.0,33,0.00,,OVC070,0.00,VWS V14.01,2013-02-20 23:56:00,
2013-02-20 19:01:00,40.4,14.3,30.13,North,10,1.0,3.0,34,0.00,,OVC070,0.00,VWS V14.01,2013-02-21 00:01:00,
2013-02-20 19:06:00,40.3,14.2,30.13,NNE,30,1.0,2.0,34,0.00,,BKN120,0.00,VWS V14.01,2013-02-21 00:06:00,
2013-02-20 19:11:00,40.3,14.8,30.13,NNE,15,1.0,2.0,35,0.00,,BKN120,0.00,VWS V14.01,2013-02-21 00:11:00,
2013-02-20 19:16:00,40.3,12.8,30.13,ENE,60,0.0,4.0,32,0.00,,BKN120,0.00,VWS V14.01,2013-02-21 00:16:00,
2013-02-20 19:21:00,40.4,12.9,30.14,NNE,27,3.0,3.0,32,0.00,,BKN120,0.00,VWS V14.01,2013-02-21 00:21:00,
2013-02-20 19:26:00,40.4,13.6,30.14,NE,34,1.0,5.0,33,0.00,,BKN120,0.00,VWS V14.01,2013-02-21 00:26:00,
2013-02-20 19:31:00,40.2,13.4,30.14,NE,40,1.0,6.0,33,0.00,,BKN120,0.00,VWS V14.01,2013-02-21 00:31:00,
2013-02-20 19:36:00,40.0,13.2,30.14,NNW,327,0.0,3.0,33,0.00,,BKN120,0.00,VWS V14.01,2013-02-21 00:36:00,
2013-02-20 19:41:00,39.8,13.1,30.15,NNW,335,2.0,5.0,33,0.00,,BKN120,0.00,VWS V14.01,2013-02-21 00:41:00,
2013-02-20 19:46:00,39.6,12.9,30.14,NNW,340,0.0,2.0,33,0.00,,BKN120,0.00,VWS V14.01,2013-02-21 00:46:00,
2013-02-20 19:51:00,39.3,13.3,30.14,WNW,301,0.0,1.0,34,0.00,,BKN120,0.00,VWS V14.01,2013-02-21 00:51:00,
2013-02-20 19:56:00,39.1,13.8,30.14,NNE,25,0.0,1.0,35,0.00,,BKN120,0.00,VWS V14.01,2013-02-21 00:56:00,
2013-02-20 20:01:00,39.0,13.7,30.14,North,1,0.0,1.0,35,0.00,,BKN120,0.00,VWS V14.01,2013-02-21 01:01:00,
2013-02-20 20:06:00,39.0,13.0,30.14,NNW,330,1.0,3.0,34,0.00,,FEW120,0.00,VWS V14.01,2013-02-21 01:06:00,
2013-02-20 20:11:00,39.1,13.8,30.14,NW,321,1.0,2.0,35,0.00,,FEW120,0.00,VWS V14.01,2013-02-21 01:11:00,
2013-02-20 20:16:00,39.2,13.9,30.14,NNW,330,0.0,1.0,35,0.00,,FEW120,0.00,VWS V14.01,2013-02-21 01:16:00,
2013-02-20 20:21:00,39.2,14.5,30.15,NW,316,1.0,2.0,36,0.00,,FEW120,0.00,VWS V14.01,2013-02-21 01:21:00,
2013-02-20 20:26:00,39.2,13.2,30.15,WNW,291,2.0,4.0,34,0.00,,FEW120,0.00,VWS V14.01,2013-02-21 01:26:00,
2013-02-20 20:31:00,39.2,13.9,30.15,NW,321,0.0,2.0,35,0.00,,FEW120,0.00,VWS V14.01,2013-02-21 01:31:00,
2013-02-20 20:36:00,39.1,13.8,30.14,WSW,258,0.0,2.0,35,0.00,,FEW120,0.00,VWS V14.01,2013-02-21 01:36:00,
2013-02-20 20:41:00,39.1,13.8,30.15,NW,316,0.0,3.0,35,0.00,,FEW120,0.00,VWS V14.01,2013-02-21 01:41:00,
2013-02-20 20:46:00,39.1,13.8,30.15,WSW,248,0.0,3.0,35,0.00,,FEW120,0.00,VWS V14.01,2013-02-21 01:46:00,
2013-02-20 20:51:00,39.1,13.8,30.15,NNW,338,0.0,1.0,35,0.00,,FEW120,0.00,VWS V14.01,2013-02-21 01:51:00,
2013-02-20 20:56:00,39.0,13.7,30.14,SW,224,0.0,1.0,35,0.00,,FEW120,0.00,VWS V14.01,2013-02-21 01:56:00,
2013-02-20 21:01:00,38.9,13.6,30.15,NW,309,0.0,1.0,35,0.00,,FEW120,0.00,VWS V14.01,2013-02-21 02:01:00,
2013-02-20 21:06:00,38.8,13.5,30.15,WNW,282,0.0,0.0,35,0.00,,BKN120,0.00,VWS V14.01,2013-02-21 02:06:00,
2013-02-20 21:11:00,38.6,13.3,30.15,WSW,255,1.0,1.0,35,0.00,,BKN120,0.00,VWS V14.01,2013-02-21 02:11:00,
2013-02-20 21:16:00,38.5,13.2,30.15,NW,316,0.0,1.0,35,0.00,,BKN120,0.00,VWS V14.01,2013-02-21 02:16:00,
2013-02-20 21:21:00,38.5,13.9,30.15,NW,310,0.0,0.0,36,0.00,,BKN120,0.00,VWS V14.01,2013-02-21 02:21:00,
2013-02-20 21:26:00,38.4,13.8,30.15,WSW,243,0.0,1.0,36,0.00,,BKN120,0.00,VWS V14.01,2013-02-21 02:26:00,
2013-02-20 21:31:00,38.6,13.3,30.15,WSW,246,1.0,2.0,35,0.00,,BKN120,0.00,VWS V14.01,2013-02-21 02:31:00,
2013-02-20 21:36:00,38.8,14.1,30.16,WSW,256,1.0,2.0,36,0.00,,BKN120,0.00,VWS V14.01,2013-02-21 02:36:00,
2013-02-20 21:41:00,38.8,14.1,30.16,WSW,256,1.0,3.0,36,0.00,,BKN120,0.00,VWS V14.01,2013-02-21 02:41:00,
2013-02-20 21:46:00,38.9,14.9,30.16,SW,230,1.0,3.0,37,0.00,,BKN120,0.00,VWS V14.01,2013-02-21 02:46:00,
2013-02-20 21:51:00,38.9,15.5,30.15,West,269,1.0,2.0,38,0.00,,BKN120,0.00,VWS V14.01,2013-02-21 02:51:00,
2013-02-20 21:56:00,38.8,14.8,30.16,WSW,249,0.0,2.0,37,0.00,,BKN120,0.00,VWS V14.01,2013-02-21 02:56:00,
2013-02-20 22:01:00,38.8,15.4,30.16,West,264,1.0,1.0,38,0.00,,SCT120,0.00,VWS V14.01,2013-02-21 03:01:00,
2013-02-20 22:06:00,38.7,14.7,30.16,West,281,0.0,2.0,37,0.00,,SCT120,0.00,VWS V14.01,2013-02-21 03:06:00,
2013-02-20 22:11:00,38.7,15.3,30.16,WSW,256,1.0,1.0,38,0.00,,SCT120,0.00,VWS V14.01,2013-02-21 03:11:00,
2013-02-20 22:16:00,38.8,14.8,30.16,WSW,258,0.0,2.0,37,0.00,,SCT120,0.00,VWS V14.01,2013-02-21 03:16:00,
2013-02-20 22:21:00,38.8,15.4,30.16,West,269,0.0,4.0,38,0.00,,SCT120,0.00,VWS V14.01,2013-02-21 03:21:00,
2013-02-20 22:26:00,38.8,15.4,30.16,West,263,4.0,4.0,38,0.00,,SCT120,0.00,VWS V14.01,2013-02-21 03:26:00,
2013-02-20 22:31:00,38.8,15.4,30.16,West,260,0.0,4.0,38,0.00,,SCT120,0.00,VWS V14.01,2013-02-21 03:31:00,
2013-02-20 22:36:00,38.8,15.4,30.16,West,265,0.0,1.0,38,0.00,,SCT120,0.00,VWS V14.01,2013-02-21 03:36:00,
2013-02-20 22:41:00,38.8,16.0,30.16,West,276,0.0,3.0,39,0.00,,SCT120,0.00,VWS V14.01,2013-02-21 03:41:00,
2013-02-20 22:46:00,38.8,16.0,30.16,WSW,253,0.0,2.0,39,0.00,,SCT120,0.00,VWS V14.01,2013-02-21 03:46:00,
2013-02-20 22:51:00,38.7,15.9,30.17,West,276,1.0,2.0,39,0.00,,SCT120,0.00,VWS V14.01,2013-02-21 03:51:00,
2013-02-20 22:56:00,38.7,16.5,30.16,SSE,156,0.0,1.0,40,0.00,,SCT120,0.00,VWS V14.01,2013-02-21 03:56:00,
2013-02-20 23:01:00,38.7,17.0,30.16,NNE,18,0.0,2.0,41,0.00,,BKN100,0.00,VWS V14.01,2013-02-21 04:01:00,
2013-02-20 23:06:00,38.6,17.0,30.15,West,265,0.0,1.0,41,0.00,,BKN100,0.00,VWS V14.01,2013-02-21 04:06:00,
2013-02-20 23:11:00,38.6,17.0,30.15,WSW,245,0.0,1.0,41,0.00,,BKN100,0.00,VWS V14.01,2013-02-21 04:11:00,
2013-02-20 23:16:00,38.6,17.0,30.15,West,264,0.0,1.0,41,0.00,,BKN100,0.00,VWS V14.01,2013-02-21 04:16:00,
2013-02-20 23:21:00,38.5,16.9,30.16,West,263,0.0,1.0,41,0.00,,BKN100,0.00,VWS V14.01,2013-02-21 04:21:00,
2013-02-20 23:26:00,38.5,16.9,30.16,West,281,0.0,2.0,41,0.00,,BKN100,0.00,VWS V14.01,2013-02-21 04:26:00,
2013-02-20 23:31:00,38.5,16.9,30.16,WSW,253,1.0,1.0,41,0.00,,BKN100,0.00,VWS V14.01,2013-02-21 04:31:00,
2013-02-20 23:36:00,38.4,17.3,30.16,WSW,255,0.0,3.0,42,0.00,,BKN100,0.00,VWS V14.01,2013-02-21 04:36:00,
2013-02-20 23:41:00,38.4,17.3,30.16,WSW,253,0.0,3.0,42,0.00,,BKN100,0.00,VWS V14.01,2013-02-21 04:41:00,
2013-02-20 23:46:00,38.4,17.3,30.15,West,263,1.0,2.0,42,0.00,,BKN100,0.00,VWS V14.01,2013-02-21 04:46:00,
2013-02-20 23:51:00,38.3,18.3,30.15,WSW,249,1.0,1.0,44,0.00,,BKN100,0.00,VWS V14.01,2013-02-21 04:51:00,
2013-02-20 23:56:00,38.3,17.8,30.15,West,267,0.0,2.0,43,0.00,,BKN100,0.00,VWS V14.01,2013-02-21 04:56:00,